Location: Be?i?
(36.9044°N, 30.1006°E)
Time: 11:30:58
(UTC+00:00)

Cosmos 2263 Rocket - Pass Details

Date: 05 August 2024
Orbit: 822 x 849 km, 71.0° (Epoch: 08 September)

Event Time Altitude Azimuth Distance (km) Brightness Sun altitude
Rises 20:49:07 0° 353° (N) 3,394 6.3 -33.5°
Reaches altitude 10° 20:52:25 10° 12° (NNE) 2,461 5.2 -33.7°
Enters shadow 20:55:48 18° 49° (NE) 1,967 4.2 -34.0°
